Theta_e
356 354 355 353 346 343 341 337 342 343 345 343 342 339 339 336 336 335 334 332 332 328
352 354 350 346 351 344 344 341 341 341 341 342 339 340 339 335 335 334 335 333 334 331
339 340 341 340 339 340 342 341 342 342 341 339 339 338 338 334 334 333 332 330 329 330
334 335 336 336 337 338 338 338 336 336 336 337 338 337 337 335 332 330 332 330 327 327
331 330 333 332 332 332 331 332 331 332 331 331 331 333 334 331 330 330 329 328 328 327
328 328 329 330 330 330 328 327 327 326 325 324 325 326 327 328 329 328 328 328 327 326
326 326 326 327 326 326 325 323 323 323 322 322 322 322 322 322 323 323 324 327 327 326
323 324 323 323 323 322 321 320 319 318 318 318 318 317 317 318 317 317 317 319 320 322
317 317 318 320 319 319 318 318 318 316 315 314 315 307 307 309 312 313 313 312 314 315
313 312 313 314 314 314 316 317 315 314 313 312 313 305 302 303 308 309 310 311 312 312
310 309 310 310 310 312 312 312 311 312 312 311 310 300 297 298 304 306 307 307 307 308
308 307 307 307 309 309 307 306 306 306 306 306 305 299 297 297 299 299 300 302 303 303
307 307 306 305 304 303 303 301 301 299 298 297 298 297 295 295 297 296 297 299 301 301
305 303 302 301 299 296 294 293 292 293 295 297 297 297 295 295 296 296 296 297 298 299
Wind_Speed
6 2 3 2 3 4 4 7 9 7 6 6 6 5 4 3 4 5 5 7 5 4
4 2 2 3 0 3 1 1 11 10 8 7 6 6 7 5 5 6 6 6 6 5
2 2 7 6 6 6 5 6 2 5 6 6 6 7 7 6 6 7 6 5 7 6
8 7 7 5 6 6 6 6 6 5 5 5 7 8 7 8 9 9 8 10 9 8
6 6 5 5 6 6 6 6 7 7 7 8 8 7 9 13 11 12 12 12 11 12
4 3 4 4 5 5 6 6 7 8 8 9 9 9 9 10 10 15 15 15 14 15
4 4 4 4 5 5 6 7 7 8 9 10 10 11 11 11 11 11 12 11 15 18
5 5 6 5 5 6 7 8 9 10 10 10 10 9 10 8 9 9 11 11 11 11
8 8 7 7 7 8 9 8 8 9 10 10 9 11 12 8 9 11 12 12 12 12
11 11 10 9 8 8 7 7 8 10 11 12 12 10 7 7 8 9 10 11 11 12
12 12 10 10 9 8 8 9 9 10 10 11 9 7 7 8 8 9 10 11 12 13
12 13 12 12 11 10 10 10 10 11 13 13 12 10 13 12 10 11 12 12 13 13
12 12 12 12 12 10 10 12 11 12 12 16 16 18 19 16 9 11 11 13 15 18
13 13 12 12 11 12 13 13 13 13 12 14 13 14 17 17 10 9 9 9 9 9
Wind_Direction
240 242 295 212 153 168 182 182 170 179 175 203 189 205 224 208 208 203 213 225 230 245
70 353 313 192 114 299 229 134 162 173 187 189 202 208 199 212 221 214 221 221 221 222
126 43 55 19 18 10 16 2 50 189 195 198 206 209 215 221 219 223 230 221 226 225
25 23 29 15 1 1 4 350 327 309 286 249 224 223 221 223 228 234 226 228 237 240
28 19 25 6 3 357 344 335 321 311 297 283 273 266 236 239 249 244 244 244 246 245
51 13 359 343 328 318 312 301 297 292 291 289 288 287 285 280 264 239 243 249 246 252
360 346 313 289 282 277 277 284 288 288 286 286 286 285 284 284 283 283 281 271 257 254
309 300 295 288 280 278 274 273 275 278 279 280 280 278 279 294 305 309 306 305 299 288
302 292 286 282 277 268 267 269 274 278 283 285 286 301 307 303 299 293 286 285 286 289
309 306 300 301 305 308 306 305 298 292 287 282 280 285 9 6 325 314 306 299 294 290
306 308 315 318 316 316 307 302 301 309 315 315 315 32 67 2 306 303 294 285 285 284
324 322 319 313 319 336 333 322 316 314 310 305 300 328 323 321 309 296 287 286 287 285
328 328 340 342 332 332 323 314 313 309 303 291 285 284 290 288 283 279 277 276 273 270
343 343 328 329 326 321 310 300 291 285 282 280 275 278 277 273 267 266 272 271 273 270